Time,TemperatureF,DewpointF,PressureIn,WindDirection,WindDirectionDegrees,WindSpeedMPH,WindSpeedGustMPH,Humidity,HourlyPrecipIn,Conditions,Clouds,dailyrainin,SoftwareType,DateUTC
2013-02-16 00:00:00,43.5,32.5,29.63,North,-999,-999.0,-999.0,65,-99.99,,,-99.99,meteohub,2013-02-16 05:00:00,
2013-02-16 00:02:00,43.5,32.5,29.63,North,-999,-999.0,-999.0,65,-99.99,,,-99.99,meteohub,2013-02-16 05:02:00,
2013-02-16 00:06:00,43.5,32.5,29.63,North,-999,-999.0,-999.0,65,-99.99,,,-99.99,meteohub,2013-02-16 05:06:00,
2013-02-16 00:11:00,43.5,32.2,29.63,North,-999,-999.0,-999.0,64,-99.99,,,-99.99,meteohub,2013-02-16 05:11:00,
2013-02-16 00:16:00,43.5,32.2,29.63,North,-999,-999.0,-999.0,64,-99.99,,,-99.99,meteohub,2013-02-16 05:16:00,
2013-02-16 00:21:00,43.3,32.4,29.63,North,-999,-999.0,-999.0,65,-99.99,,,-99.99,meteohub,2013-02-16 05:21:00,
2013-02-16 00:23:00,43.3,32.4,29.63,North,-999,-999.0,-999.0,65,-99.99,,,-99.99,meteohub,2013-02-16 05:23:00,
2013-02-16 00:28:00,44.2,33.6,29.63,North,-999,-999.0,-999.0,66,-99.99,,,-99.99,meteohub,2013-02-16 05:28:00,
2013-02-16 00:33:00,44.6,33.3,29.63,North,-999,-999.0,-999.0,64,-99.99,,,-99.99,meteohub,2013-02-16 05:33:00,
2013-02-16 00:39:00,44.6,32.9,29.63,North,-999,-999.0,-999.0,63,-99.99,,,-99.99,meteohub,2013-02-16 05:39:00,
2013-02-16 00:44:00,44.4,32.7,29.63,North,-999,-999.0,-999.0,63,-99.99,,,-99.99,meteohub,2013-02-16 05:44:00,
2013-02-16 00:49:00,44.4,32.2,29.63,North,-999,-999.0,-999.0,62,-99.99,,,-99.99,meteohub,2013-02-16 05:49:00,
2013-02-16 00:54:00,44.6,31.6,29.63,North,-999,-999.0,-999.0,60,-99.99,,,-99.99,meteohub,2013-02-16 05:54:00,
2013-02-16 00:59:00,44.6,31.6,29.63,North,-999,-999.0,-999.0,60,-99.99,,,-99.99,meteohub,2013-02-16 05:59:00,
2013-02-16 01:04:00,44.4,31.5,29.66,North,-999,-999.0,-999.0,60,-99.99,,,-99.99,meteohub,2013-02-16 06:04:00,
2013-02-16 01:09:00,44.6,31.3,29.66,North,-999,-999.0,-999.0,59,-99.99,,,-99.99,meteohub,2013-02-16 06:09:00,
2013-02-16 01:14:00,44.6,31.3,29.66,North,-999,-999.0,-999.0,59,-99.99,,,-99.99,meteohub,2013-02-16 06:14:00,
2013-02-16 01:19:00,44.6,30.7,29.63,North,-999,-999.0,-999.0,58,-99.99,,,-99.99,meteohub,2013-02-16 06:19:00,
2013-02-16 01:24:00,44.6,30.7,29.63,North,-999,-999.0,-999.0,58,-99.99,,,-99.99,meteohub,2013-02-16 06:24:00,
2013-02-16 01:30:00,44.6,30.7,29.63,North,-999,-999.0,-999.0,58,-99.99,,,-99.99,meteohub,2013-02-16 06:30:00,
2013-02-16 01:35:00,44.6,30.7,29.63,North,-999,-999.0,-999.0,58,-99.99,,,-99.99,meteohub,2013-02-16 06:35:00,
2013-02-16 01:40:00,44.6,30.4,29.63,North,-999,-999.0,-999.0,57,-99.99,,,-99.99,meteohub,2013-02-16 06:40:00,
2013-02-16 01:45:00,44.4,30.6,29.63,North,-999,-999.0,-999.0,58,-99.99,,,-99.99,meteohub,2013-02-16 06:45:00,
2013-02-16 01:50:00,44.4,30.6,29.63,North,-999,-999.0,-999.0,58,-99.99,,,-99.99,meteohub,2013-02-16 06:50:00,
2013-02-16 01:55:00,44.2,30.4,29.63,North,-999,-999.0,-999.0,58,-99.99,,,-99.99,meteohub,2013-02-16 06:55:00,
2013-02-16 02:00:00,44.2,30.4,29.63,North,-999,-999.0,-999.0,58,-99.99,,,-99.99,meteohub,2013-02-16 07:00:00,
2013-02-16 02:05:00,44.1,30.2,29.63,North,-999,-999.0,-999.0,58,-99.99,,,-99.99,meteohub,2013-02-16 07:05:00,
2013-02-16 02:11:00,44.1,29.8,29.63,North,-999,-999.0,-999.0,57,-99.99,,,-99.99,meteohub,2013-02-16 07:11:00,
2013-02-16 02:16:00,44.1,29.8,29.63,North,-999,-999.0,-999.0,57,-99.99,,,-99.99,meteohub,2013-02-16 07:16:00,
2013-02-16 02:21:00,44.1,30.2,29.63,North,-999,-999.0,-999.0,58,-99.99,,,-99.99,meteohub,2013-02-16 07:21:00,
2013-02-16 02:26:00,44.1,29.8,29.63,North,-999,-999.0,-999.0,57,-99.99,,,-99.99,meteohub,2013-02-16 07:26:00,
2013-02-16 02:31:00,44.1,29.8,29.63,North,-999,-999.0,-999.0,57,-99.99,,,-99.99,meteohub,2013-02-16 07:31:00,
2013-02-16 02:36:00,43.9,29.7,29.63,North,-999,-999.0,-999.0,57,-99.99,,,-99.99,meteohub,2013-02-16 07:36:00,
2013-02-16 02:41:00,43.9,29.7,29.63,North,-999,-999.0,-999.0,57,-99.99,,,-99.99,meteohub,2013-02-16 07:41:00,
2013-02-16 02:46:00,43.9,29.7,29.63,North,-999,-999.0,-999.0,57,-99.99,,,-99.99,meteohub,2013-02-16 07:46:00,
2013-02-16 02:51:00,43.9,29.7,29.60,North,-999,-999.0,-999.0,57,-99.99,,,-99.99,meteohub,2013-02-16 07:51:00,
2013-02-16 02:57:00,43.7,29.1,29.60,North,-999,-999.0,-999.0,56,-99.99,,,-99.99,meteohub,2013-02-16 07:57:00,
2013-02-16 03:02:00,43.7,29.1,29.60,North,-999,-999.0,-999.0,56,-99.99,,,-99.99,meteohub,2013-02-16 08:02:00,
2013-02-16 03:07:00,43.7,29.1,29.60,North,-999,-999.0,-999.0,56,-99.99,,,-99.99,meteohub,2013-02-16 08:07:00,
2013-02-16 03:12:00,43.7,29.1,29.60,North,-999,-999.0,-999.0,56,-99.99,,,-99.99,meteohub,2013-02-16 08:12:00,
2013-02-16 03:17:00,43.5,28.9,29.60,North,-999,-999.0,-999.0,56,-99.99,,,-99.99,meteohub,2013-02-16 08:17:00,
2013-02-16 03:22:00,43.5,28.9,29.60,North,-999,-999.0,-999.0,56,-99.99,,,-99.99,meteohub,2013-02-16 08:22:00,
2013-02-16 03:27:00,43.5,28.9,29.60,North,-999,-999.0,-999.0,56,-99.99,,,-99.99,meteohub,2013-02-16 08:27:00,
2013-02-16 03:32:00,43.3,28.8,29.60,North,-999,-999.0,-999.0,56,-99.99,,,-99.99,meteohub,2013-02-16 08:32:00,
2013-02-16 03:37:00,43.3,28.8,29.60,North,-999,-999.0,-999.0,56,-99.99,,,-99.99,meteohub,2013-02-16 08:37:00,
2013-02-16 03:42:00,43.3,28.8,29.60,North,-999,-999.0,-999.0,56,-99.99,,,-99.99,meteohub,2013-02-16 08:42:00,
2013-02-16 03:47:00,43.3,28.8,29.60,North,-999,-999.0,-999.0,56,-99.99,,,-99.99,meteohub,2013-02-16 08:47:00,
2013-02-16 03:52:00,43.2,28.6,29.60,North,-999,-999.0,-999.0,56,-99.99,,,-99.99,meteohub,2013-02-16 08:52:00,
2013-02-16 03:57:00,43.2,28.6,29.60,North,-999,-999.0,-999.0,56,-99.99,,,-99.99,meteohub,2013-02-16 08:57:00,
2013-02-16 04:02:00,43.2,28.0,29.60,North,-999,-999.0,-999.0,55,-99.99,,,-99.99,meteohub,2013-02-16 09:02:00,
2013-02-16 04:07:00,43.2,28.0,29.60,North,-999,-999.0,-999.0,55,-99.99,,,-99.99,meteohub,2013-02-16 09:07:00,
2013-02-16 04:12:00,43.0,28.0,29.60,North,-999,-999.0,-999.0,55,-99.99,,,-99.99,meteohub,2013-02-16 09:12:00,
2013-02-16 04:17:00,43.0,28.0,29.60,North,-999,-999.0,-999.0,55,-99.99,,,-99.99,meteohub,2013-02-16 09:17:00,
2013-02-16 04:22:00,43.0,28.0,29.60,North,-999,-999.0,-999.0,55,-99.99,,,-99.99,meteohub,2013-02-16 09:22:00,
2013-02-16 04:27:00,43.0,28.0,29.60,North,-999,-999.0,-999.0,55,-99.99,,,-99.99,meteohub,2013-02-16 09:27:00,
2013-02-16 04:32:00,43.0,28.0,29.60,North,-999,-999.0,-999.0,55,-99.99,,,-99.99,meteohub,2013-02-16 09:32:00,
2013-02-16 04:37:00,42.8,27.9,29.60,North,-999,-999.0,-999.0,55,-99.99,,,-99.99,meteohub,2013-02-16 09:37:00,
2013-02-16 04:42:00,42.8,27.3,29.60,North,-999,-999.0,-999.0,54,-99.99,,,-99.99,meteohub,2013-02-16 09:42:00,
2013-02-16 04:47:00,42.8,27.3,29.60,North,-999,-999.0,-999.0,54,-99.99,,,-99.99,meteohub,2013-02-16 09:47:00,
2013-02-16 04:52:00,42.8,27.3,29.60,North,-999,-999.0,-999.0,54,-99.99,,,-99.99,meteohub,2013-02-16 09:52:00,
2013-02-16 04:57:00,42.8,27.3,29.60,North,-999,-999.0,-999.0,54,-99.99,,,-99.99,meteohub,2013-02-16 09:57:00,
2013-02-16 05:02:00,42.6,27.7,29.60,North,-999,-999.0,-999.0,55,-99.99,,,-99.99,meteohub,2013-02-16 10:02:00,
2013-02-16 05:07:00,42.6,27.7,29.57,North,-999,-999.0,-999.0,55,-99.99,,,-99.99,meteohub,2013-02-16 10:07:00,
2013-02-16 05:12:00,42.4,27.5,29.57,North,-999,-999.0,-999.0,55,-99.99,,,-99.99,meteohub,2013-02-16 10:12:00,
2013-02-16 05:17:00,42.4,27.5,29.57,North,-999,-999.0,-999.0,55,-99.99,,,-99.99,meteohub,2013-02-16 10:17:00,
2013-02-16 05:22:00,42.4,27.0,29.57,North,-999,-999.0,-999.0,54,-99.99,,,-99.99,meteohub,2013-02-16 10:22:00,
2013-02-16 05:27:00,42.4,27.5,29.57,North,-999,-999.0,-999.0,55,-99.99,,,-99.99,meteohub,2013-02-16 10:27:00,
2013-02-16 05:32:00,42.3,27.3,29.57,North,-999,-999.0,-999.0,55,-99.99,,,-99.99,meteohub,2013-02-16 10:32:00,
2013-02-16 05:37:00,42.3,27.3,29.57,North,-999,-999.0,-999.0,55,-99.99,,,-99.99,meteohub,2013-02-16 10:37:00,
2013-02-16 05:42:00,42.3,27.3,29.57,North,-999,-999.0,-999.0,55,-99.99,,,-99.99,meteohub,2013-02-16 10:42:00,
2013-02-16 05:47:00,42.1,27.1,29.57,North,-999,-999.0,-999.0,55,-99.99,,,-99.99,meteohub,2013-02-16 10:47:00,
2013-02-16 05:52:00,42.1,27.1,29.57,North,-999,-999.0,-999.0,55,-99.99,,,-99.99,meteohub,2013-02-16 10:52:00,
2013-02-16 05:57:00,42.1,27.1,29.57,North,-999,-999.0,-999.0,55,-99.99,,,-99.99,meteohub,2013-02-16 10:57:00,
2013-02-16 06:02:00,41.9,27.0,29.57,North,-999,-999.0,-999.0,55,-99.99,,,-99.99,meteohub,2013-02-16 11:02:00,
2013-02-16 06:07:00,41.9,27.0,29.57,North,-999,-999.0,-999.0,55,-99.99,,,-99.99,meteohub,2013-02-16 11:07:00,
2013-02-16 06:12:00,41.9,27.0,29.57,North,-999,-999.0,-999.0,55,-99.99,,,-99.99,meteohub,2013-02-16 11:12:00,
2013-02-16 06:17:00,41.9,27.0,29.57,North,-999,-999.0,-999.0,55,-99.99,,,-99.99,meteohub,2013-02-16 11:17:00,
2013-02-16 06:22:00,41.9,27.0,29.57,North,-999,-999.0,-999.0,55,-99.99,,,-99.99,meteohub,2013-02-16 11:22:00,
2013-02-16 06:27:00,41.9,27.0,29.57,North,-999,-999.0,-999.0,55,-99.99,,,-99.99,meteohub,2013-02-16 11:27:00,
2013-02-16 06:32:00,41.9,27.0,29.57,North,-999,-999.0,-999.0,55,-99.99,,,-99.99,meteohub,2013-02-16 11:32:00,
2013-02-16 06:37:00,41.9,27.0,29.57,North,-999,-999.0,-999.0,55,-99.99,,,-99.99,meteohub,2013-02-16 11:37:00,
2013-02-16 06:42:00,41.9,27.3,29.57,North,-999,-999.0,-999.0,56,-99.99,,,-99.99,meteohub,2013-02-16 11:42:00,
2013-02-16 06:47:00,41.9,27.3,29.57,North,-999,-999.0,-999.0,56,-99.99,,,-99.99,meteohub,2013-02-16 11:47:00,
2013-02-16 06:52:00,41.9,27.3,29.57,North,-999,-999.0,-999.0,56,-99.99,,,-99.99,meteohub,2013-02-16 11:52:00,
2013-02-16 06:57:00,41.9,27.9,29.57,North,-999,-999.0,-999.0,57,-99.99,,,-99.99,meteohub,2013-02-16 11:57:00,
2013-02-16 07:02:00,41.7,27.1,29.57,North,-999,-999.0,-999.0,56,-99.99,,,-99.99,meteohub,2013-02-16 12:02:00,
2013-02-16 07:07:00,41.7,27.7,29.57,North,-999,-999.0,-999.0,57,-99.99,,,-99.99,meteohub,2013-02-16 12:07:00,
2013-02-16 07:12:00,41.7,27.7,29.57,North,-999,-999.0,-999.0,57,-99.99,,,-99.99,meteohub,2013-02-16 12:12:00,
2013-02-16 07:17:00,41.5,27.5,29.57,North,-999,-999.0,-999.0,57,-99.99,,,-99.99,meteohub,2013-02-16 12:17:00,
2013-02-16 07:22:00,41.5,27.9,29.63,North,-999,-999.0,-999.0,58,-99.99,,,-99.99,meteohub,2013-02-16 12:22:00,
2013-02-16 07:27:00,41.5,27.9,29.63,North,-999,-999.0,-999.0,58,-99.99,,,-99.99,meteohub,2013-02-16 12:27:00,
2013-02-16 07:32:00,41.5,28.8,29.63,North,-999,-999.0,-999.0,60,-99.99,,,-99.99,meteohub,2013-02-16 12:32:00,
2013-02-16 07:37:00,41.2,28.8,29.63,North,-999,-999.0,-999.0,61,-99.99,,,-99.99,meteohub,2013-02-16 12:37:00,
2013-02-16 07:42:00,41.0,28.9,29.63,North,-999,-999.0,-999.0,62,-99.99,,,-99.99,meteohub,2013-02-16 12:42:00,
2013-02-16 07:47:00,40.8,29.7,29.63,North,-999,-999.0,-999.0,64,-99.99,,,-99.99,meteohub,2013-02-16 12:47:00,
2013-02-16 07:52:00,40.6,30.6,29.63,North,-999,-999.0,-999.0,67,-99.99,,,-99.99,meteohub,2013-02-16 12:52:00,
2013-02-16 07:57:00,40.3,30.9,29.63,North,-999,-999.0,-999.0,69,-99.99,,,-99.99,meteohub,2013-02-16 12:57:00,
2013-02-16 08:02:00,40.3,30.9,29.63,North,-999,-999.0,-999.0,69,-99.99,,,-99.99,meteohub,2013-02-16 13:02:00,
2013-02-16 08:07:00,39.9,30.6,29.63,North,-999,-999.0,-999.0,69,-99.99,,,-99.99,meteohub,2013-02-16 13:07:00,
2013-02-16 08:12:00,39.7,30.7,29.63,North,-999,-999.0,-999.0,70,-99.99,,,-99.99,meteohub,2013-02-16 13:12:00,
2013-02-16 08:17:00,39.7,30.7,29.63,North,-999,-999.0,-999.0,70,-99.99,,,-99.99,meteohub,2013-02-16 13:17:00,
2013-02-16 08:22:00,39.4,31.1,29.66,North,-999,-999.0,-999.0,72,-99.99,,,-99.99,meteohub,2013-02-16 13:22:00,
2013-02-16 08:27:00,39.4,31.1,29.66,North,-999,-999.0,-999.0,72,-99.99,,,-99.99,meteohub,2013-02-16 13:27:00,
2013-02-16 08:32:00,39.2,31.3,29.66,North,-999,-999.0,-999.0,73,-99.99,,,-99.99,meteohub,2013-02-16 13:32:00,
2013-02-16 08:37:00,39.0,32.2,29.63,North,-999,-999.0,-999.0,76,-99.99,,,-99.99,meteohub,2013-02-16 13:37:00,
2013-02-16 08:42:00,38.8,32.0,29.63,North,-999,-999.0,-999.0,76,-99.99,,,-99.99,meteohub,2013-02-16 13:42:00,
2013-02-16 08:47:00,38.7,32.2,29.63,North,-999,-999.0,-999.0,77,-99.99,,,-99.99,meteohub,2013-02-16 13:47:00,
2013-02-16 08:52:00,38.7,32.4,29.63,North,-999,-999.0,-999.0,78,-99.99,,,-99.99,meteohub,2013-02-16 13:52:00,
2013-02-16 08:57:00,38.5,32.2,29.63,North,-999,-999.0,-999.0,78,-99.99,,,-99.99,meteohub,2013-02-16 13:57:00,
2013-02-16 09:02:00,38.1,31.8,29.63,North,-999,-999.0,-999.0,78,-99.99,,,-99.99,meteohub,2013-02-16 14:02:00,
2013-02-16 09:07:00,37.9,31.6,29.63,North,-999,-999.0,-999.0,78,-99.99,,,-99.99,meteohub,2013-02-16 14:07:00,
2013-02-16 09:12:00,37.8,31.8,29.63,North,-999,-999.0,-999.0,79,-99.99,,,-99.99,meteohub,2013-02-16 14:12:00,
2013-02-16 09:17:00,37.6,32.0,29.63,North,-999,-999.0,-999.0,80,-99.99,,,-99.99,meteohub,2013-02-16 14:17:00,
2013-02-16 09:22:00,37.4,31.5,29.63,North,-999,-999.0,-999.0,79,-99.99,,,-99.99,meteohub,2013-02-16 14:22:00,
2013-02-16 09:27:00,37.2,32.0,29.63,North,-999,-999.0,-999.0,81,-99.99,,,-99.99,meteohub,2013-02-16 14:27:00,
2013-02-16 09:32:00,37.0,31.5,29.63,North,-999,-999.0,-999.0,80,-99.99,,,-99.99,meteohub,2013-02-16 14:32:00,
2013-02-16 09:37:00,36.7,31.1,29.63,North,-999,-999.0,-999.0,80,-99.99,,,-99.99,meteohub,2013-02-16 14:37:00,
2013-02-16 09:42:00,36.5,31.3,29.63,North,-999,-999.0,-999.0,81,-99.99,,,-99.99,meteohub,2013-02-16 14:42:00,
2013-02-16 09:47:00,36.3,30.7,29.63,North,-999,-999.0,-999.0,80,-99.99,,,-99.99,meteohub,2013-02-16 14:47:00,
2013-02-16 09:52:00,36.3,30.7,29.63,North,-999,-999.0,-999.0,80,-99.99,,,-99.99,meteohub,2013-02-16 14:52:00,
2013-02-16 09:57:00,36.0,30.4,29.63,North,-999,-999.0,-999.0,80,-99.99,,,-99.99,meteohub,2013-02-16 14:57:00,
2013-02-16 10:02:00,35.8,30.2,29.63,North,-999,-999.0,-999.0,80,-99.99,,,-99.99,meteohub,2013-02-16 15:02:00,
2013-02-16 10:07:00,35.4,29.8,29.63,North,-999,-999.0,-999.0,80,-99.99,,,-99.99,meteohub,2013-02-16 15:07:00,
2013-02-16 10:12:00,35.2,29.7,29.63,North,-999,-999.0,-999.0,80,-99.99,,,-99.99,meteohub,2013-02-16 15:12:00,
2013-02-16 10:17:00,35.1,29.5,29.63,North,-999,-999.0,-999.0,80,-99.99,,,-99.99,meteohub,2013-02-16 15:17:00,
2013-02-16 10:22:00,35.1,29.5,29.60,North,-999,-999.0,-999.0,80,-99.99,,,-99.99,meteohub,2013-02-16 15:22:00,
2013-02-16 10:27:00,34.9,29.3,29.60,North,-999,-999.0,-999.0,80,-99.99,,,-99.99,meteohub,2013-02-16 15:27:00,
2013-02-16 10:32:00,34.9,29.7,29.60,North,-999,-999.0,-999.0,81,-99.99,,,-99.99,meteohub,2013-02-16 15:32:00,
2013-02-16 10:37:00,34.5,29.3,29.60,North,-999,-999.0,-999.0,81,-99.99,,,-99.99,meteohub,2013-02-16 15:37:00,
2013-02-16 10:42:00,34.5,29.3,29.60,North,-999,-999.0,-999.0,81,-99.99,,,-99.99,meteohub,2013-02-16 15:42:00,
2013-02-16 10:47:00,34.5,29.3,29.60,North,-999,-999.0,-999.0,81,-99.99,,,-99.99,meteohub,2013-02-16 15:47:00,
2013-02-16 10:52:00,34.3,29.1,29.60,North,-999,-999.0,-999.0,81,-99.99,,,-99.99,meteohub,2013-02-16 15:52:00,
2013-02-16 10:57:00,34.2,28.9,29.60,North,-999,-999.0,-999.0,81,-99.99,,,-99.99,meteohub,2013-02-16 15:57:00,
2013-02-16 11:02:00,34.2,28.9,29.60,North,-999,-999.0,-999.0,81,-99.99,,,-99.99,meteohub,2013-02-16 16:02:00,
2013-02-16 11:07:00,33.8,28.6,29.60,North,-999,-999.0,-999.0,81,-99.99,,,-99.99,meteohub,2013-02-16 16:07:00,
2013-02-16 11:12:00,34.0,28.8,29.60,North,-999,-999.0,-999.0,81,-99.99,,,-99.99,meteohub,2013-02-16 16:12:00,
2013-02-16 11:17:00,34.0,28.8,29.60,North,-999,-999.0,-999.0,81,-99.99,,,-99.99,meteohub,2013-02-16 16:17:00,
2013-02-16 11:22:00,34.0,29.1,29.60,North,-999,-999.0,-999.0,82,-99.99,,,-99.99,meteohub,2013-02-16 16:22:00,
2013-02-16 11:27:00,34.0,29.3,29.60,North,-999,-999.0,-999.0,83,-99.99,,,-99.99,meteohub,2013-02-16 16:27:00,
2013-02-16 11:32:00,34.0,29.1,29.60,North,-999,-999.0,-999.0,82,-99.99,,,-99.99,meteohub,2013-02-16 16:32:00,
2013-02-16 11:37:00,34.0,29.1,29.60,North,-999,-999.0,-999.0,82,-99.99,,,-99.99,meteohub,2013-02-16 16:37:00,
2013-02-16 11:42:00,34.0,29.3,29.60,North,-999,-999.0,-999.0,83,-99.99,,,-99.99,meteohub,2013-02-16 16:42:00,
2013-02-16 11:47:00,34.2,29.5,29.60,North,-999,-999.0,-999.0,83,-99.99,,,-99.99,meteohub,2013-02-16 16:47:00,
2013-02-16 11:52:00,34.2,29.5,29.60,North,-999,-999.0,-999.0,83,-99.99,,,-99.99,meteohub,2013-02-16 16:52:00,
2013-02-16 11:57:00,34.3,29.7,29.60,North,-999,-999.0,-999.0,83,-99.99,,,-99.99,meteohub,2013-02-16 16:57:00,
2013-02-16 12:02:00,34.3,29.7,29.60,North,-999,-999.0,-999.0,83,-99.99,,,-99.99,meteohub,2013-02-16 17:02:00,
2013-02-16 12:07:00,34.3,29.7,29.57,North,-999,-999.0,-999.0,83,-99.99,,,-99.99,meteohub,2013-02-16 17:07:00,
2013-02-16 12:12:00,34.5,29.8,29.57,North,-999,-999.0,-999.0,83,-99.99,,,-99.99,meteohub,2013-02-16 17:12:00,
2013-02-16 12:17:00,34.5,29.8,29.57,North,-999,-999.0,-999.0,83,-99.99,,,-99.99,meteohub,2013-02-16 17:17:00,
2013-02-16 12:22:00,34.7,30.0,29.57,North,-999,-999.0,-999.0,83,-99.99,,,-99.99,meteohub,2013-02-16 17:22:00,
2013-02-16 12:27:00,34.7,30.4,29.57,North,-999,-999.0,-999.0,84,-99.99,,,-99.99,meteohub,2013-02-16 17:27:00,
2013-02-16 12:32:00,34.7,30.4,29.57,North,-999,-999.0,-999.0,84,-99.99,,,-99.99,meteohub,2013-02-16 17:32:00,
2013-02-16 12:37:00,34.7,30.4,29.54,North,-999,-999.0,-999.0,84,-99.99,,,-99.99,meteohub,2013-02-16 17:37:00,
2013-02-16 12:42:00,34.9,30.6,29.54,North,-999,-999.0,-999.0,84,-99.99,,,-99.99,meteohub,2013-02-16 17:42:00,
2013-02-16 12:47:00,34.9,30.6,29.54,North,-999,-999.0,-999.0,84,-99.99,,,-99.99,meteohub,2013-02-16 17:47:00,
2013-02-16 12:52:00,35.1,30.7,29.54,North,-999,-999.0,-999.0,84,-99.99,,,-99.99,meteohub,2013-02-16 17:52:00,
2013-02-16 12:57:00,34.9,30.9,29.54,North,-999,-999.0,-999.0,85,-99.99,,,-99.99,meteohub,2013-02-16 17:57:00,
2013-02-16 13:02:00,34.9,30.9,29.54,North,-999,-999.0,-999.0,85,-99.99,,,-99.99,meteohub,2013-02-16 18:02:00,
2013-02-16 13:07:00,34.9,30.9,29.54,North,-999,-999.0,-999.0,85,-99.99,,,-99.99,meteohub,2013-02-16 18:07:00,
2013-02-16 13:12:00,34.9,30.9,29.54,North,-999,-999.0,-999.0,85,-99.99,,,-99.99,meteohub,2013-02-16 18:12:00,
2013-02-16 13:17:00,34.9,30.9,29.54,North,-999,-999.0,-999.0,85,-99.99,,,-99.99,meteohub,2013-02-16 18:17:00,
2013-02-16 13:22:00,34.9,30.9,29.54,North,-999,-999.0,-999.0,85,-99.99,,,-99.99,meteohub,2013-02-16 18:22:00,
2013-02-16 13:27:00,34.9,30.9,29.54,North,-999,-999.0,-999.0,85,-99.99,,,-99.99,meteohub,2013-02-16 18:27:00,
2013-02-16 13:32:00,34.9,30.9,29.54,North,-999,-999.0,-999.0,85,-99.99,,,-99.99,meteohub,2013-02-16 18:32:00,
2013-02-16 13:37:00,34.9,30.9,29.54,North,-999,-999.0,-999.0,85,-99.99,,,-99.99,meteohub,2013-02-16 18:37:00,
2013-02-16 13:42:00,34.9,30.9,29.54,North,-999,-999.0,-999.0,85,-99.99,,,-99.99,meteohub,2013-02-16 18:42:00,
2013-02-16 13:47:00,34.9,30.9,29.54,North,-999,-999.0,-999.0,85,-99.99,,,-99.99,meteohub,2013-02-16 18:47:00,
2013-02-16 13:52:00,35.1,31.3,29.51,North,-999,-999.0,-999.0,86,-99.99,,,-99.99,meteohub,2013-02-16 18:52:00,
2013-02-16 13:57:00,35.1,31.3,29.51,North,-999,-999.0,-999.0,86,-99.99,,,-99.99,meteohub,2013-02-16 18:57:00,
2013-02-16 14:02:00,34.9,31.1,29.51,North,-999,-999.0,-999.0,86,-99.99,,,-99.99,meteohub,2013-02-16 19:02:00,
2013-02-16 14:07:00,34.9,31.1,29.51,North,-999,-999.0,-999.0,86,-99.99,,,-99.99,meteohub,2013-02-16 19:07:00,
2013-02-16 14:12:00,34.9,31.5,29.51,North,-999,-999.0,-999.0,87,-99.99,,,-99.99,meteohub,2013-02-16 19:12:00,
2013-02-16 14:17:00,34.9,31.5,29.51,North,-999,-999.0,-999.0,87,-99.99,,,-99.99,meteohub,2013-02-16 19:17:00,
2013-02-16 14:22:00,34.9,31.5,29.51,North,-999,-999.0,-999.0,87,-99.99,,,-99.99,meteohub,2013-02-16 19:22:00,
2013-02-16 14:27:00,35.1,31.6,29.51,North,-999,-999.0,-999.0,87,-99.99,,,-99.99,meteohub,2013-02-16 19:27:00,
2013-02-16 14:32:00,35.1,31.6,29.51,North,-999,-999.0,-999.0,87,-99.99,,,-99.99,meteohub,2013-02-16 19:32:00,
2013-02-16 14:37:00,35.1,31.6,29.51,North,-999,-999.0,-999.0,87,-99.99,,,-99.99,meteohub,2013-02-16 19:37:00,
2013-02-16 14:42:00,35.1,31.6,29.51,North,-999,-999.0,-999.0,87,-99.99,,,-99.99,meteohub,2013-02-16 19:42:00,
2013-02-16 14:47:00,34.9,31.5,29.51,North,-999,-999.0,-999.0,87,-99.99,,,-99.99,meteohub,2013-02-16 19:47:00,
2013-02-16 14:52:00,34.9,31.5,29.51,North,-999,-999.0,-999.0,87,-99.99,,,-99.99,meteohub,2013-02-16 19:52:00,
2013-02-16 14:57:00,34.9,31.5,29.51,North,-999,-999.0,-999.0,87,-99.99,,,-99.99,meteohub,2013-02-16 19:57:00,
2013-02-16 15:02:00,34.9,31.5,29.51,North,-999,-999.0,-999.0,87,-99.99,,,-99.99,meteohub,2013-02-16 20:02:00,
2013-02-16 15:07:00,34.9,31.5,29.54,North,-999,-999.0,-999.0,87,-99.99,,,-99.99,meteohub,2013-02-16 20:07:00,
2013-02-16 15:12:00,34.9,31.5,29.54,North,-999,-999.0,-999.0,87,-99.99,,,-99.99,meteohub,2013-02-16 20:12:00,
2013-02-16 15:17:00,34.9,31.5,29.54,North,-999,-999.0,-999.0,87,-99.99,,,-99.99,meteohub,2013-02-16 20:17:00,
2013-02-16 15:22:00,34.7,31.3,29.51,North,-999,-999.0,-999.0,87,-99.99,,,-99.99,meteohub,2013-02-16 20:22:00,
2013-02-16 15:27:00,34.7,31.3,29.51,North,-999,-999.0,-999.0,87,-99.99,,,-99.99,meteohub,2013-02-16 20:27:00,
2013-02-16 15:32:00,34.5,31.1,29.51,North,-999,-999.0,-999.0,87,-99.99,,,-99.99,meteohub,2013-02-16 20:32:00,
2013-02-16 15:37:00,34.5,31.1,29.51,North,-999,-999.0,-999.0,87,-99.99,,,-99.99,meteohub,2013-02-16 20:37:00,
2013-02-16 15:42:00,34.5,31.3,29.51,North,-999,-999.0,-999.0,88,-99.99,,,-99.99,meteohub,2013-02-16 20:42:00,
2013-02-16 15:47:00,34.5,31.1,29.51,North,-999,-999.0,-999.0,87,-99.99,,,-99.99,meteohub,2013-02-16 20:47:00,
2013-02-16 15:52:00,34.3,30.9,29.54,North,-999,-999.0,-999.0,87,-99.99,,,-99.99,meteohub,2013-02-16 20:52:00,
2013-02-16 15:57:00,34.3,31.1,29.54,North,-999,-999.0,-999.0,88,-99.99,,,-99.99,meteohub,2013-02-16 20:57:00,
2013-02-16 16:02:00,34.3,31.1,29.54,North,-999,-999.0,-999.0,88,-99.99,,,-99.99,meteohub,2013-02-16 21:02:00,
2013-02-16 16:07:00,34.3,31.1,29.51,North,-999,-999.0,-999.0,88,-99.99,,,-99.99,meteohub,2013-02-16 21:07:00,
2013-02-16 16:12:00,34.3,31.1,29.51,North,-999,-999.0,-999.0,88,-99.99,,,-99.99,meteohub,2013-02-16 21:12:00,
2013-02-16 16:17:00,34.3,31.1,29.51,North,-999,-999.0,-999.0,88,-99.99,,,-99.99,meteohub,2013-02-16 21:17:00,
2013-02-16 16:22:00,34.3,31.1,29.54,North,-999,-999.0,-999.0,88,-99.99,,,-99.99,meteohub,2013-02-16 21:22:00,
2013-02-16 16:27:00,34.3,31.1,29.54,North,-999,-999.0,-999.0,88,-99.99,,,-99.99,meteohub,2013-02-16 21:27:00,
2013-02-16 16:32:00,34.3,31.1,29.54,North,-999,-999.0,-999.0,88,-99.99,,,-99.99,meteohub,2013-02-16 21:32:00,
2013-02-16 16:37:00,34.3,31.1,29.51,North,-999,-999.0,-999.0,88,-99.99,,,-99.99,meteohub,2013-02-16 21:37:00,
2013-02-16 16:42:00,34.3,31.1,29.51,North,-999,-999.0,-999.0,88,-99.99,,,-99.99,meteohub,2013-02-16 21:42:00,
2013-02-16 16:47:00,34.3,31.5,29.51,North,-999,-999.0,-999.0,89,-99.99,,,-99.99,meteohub,2013-02-16 21:47:00,
2013-02-16 16:52:00,34.3,31.5,29.54,North,-999,-999.0,-999.0,89,-99.99,,,-99.99,meteohub,2013-02-16 21:52:00,
2013-02-16 16:57:00,34.3,31.5,29.54,North,-999,-999.0,-999.0,89,-99.99,,,-99.99,meteohub,2013-02-16 21:57:00,
2013-02-16 17:02:00,34.3,31.5,29.54,North,-999,-999.0,-999.0,89,-99.99,,,-99.99,meteohub,2013-02-16 22:02:00,
2013-02-16 17:07:00,34.3,31.5,29.54,North,-999,-999.0,-999.0,89,-99.99,,,-99.99,meteohub,2013-02-16 22:07:00,
2013-02-16 17:12:00,34.2,31.3,29.54,North,-999,-999.0,-999.0,89,-99.99,,,-99.99,meteohub,2013-02-16 22:12:00,
2013-02-16 17:17:00,34.2,31.3,29.54,North,-999,-999.0,-999.0,89,-99.99,,,-99.99,meteohub,2013-02-16 22:17:00,
2013-02-16 17:22:00,34.2,31.3,29.54,North,-999,-999.0,-999.0,89,-99.99,,,-99.99,meteohub,2013-02-16 22:22:00,
2013-02-16 17:27:00,34.2,31.3,29.54,North,-999,-999.0,-999.0,89,-99.99,,,-99.99,meteohub,2013-02-16 22:27:00,
2013-02-16 17:32:00,34.0,31.1,29.54,North,-999,-999.0,-999.0,89,-99.99,,,-99.99,meteohub,2013-02-16 22:32:00,
2013-02-16 17:37:00,34.0,31.1,29.51,North,-999,-999.0,-999.0,89,-99.99,,,-99.99,meteohub,2013-02-16 22:37:00,
2013-02-16 17:42:00,34.0,31.1,29.51,North,-999,-999.0,-999.0,89,-99.99,,,-99.99,meteohub,2013-02-16 22:42:00,
2013-02-16 17:47:00,34.0,31.1,29.51,North,-999,-999.0,-999.0,89,-99.99,,,-99.99,meteohub,2013-02-16 22:47:00,
2013-02-16 17:52:00,34.0,31.1,29.51,North,-999,-999.0,-999.0,89,-99.99,,,-99.99,meteohub,2013-02-16 22:52:00,
2013-02-16 17:57:00,34.0,31.1,29.51,North,-999,-999.0,-999.0,89,-99.99,,,-99.99,meteohub,2013-02-16 22:57:00,
2013-02-16 18:02:00,33.8,31.1,29.51,North,-999,-999.0,-999.0,90,-99.99,,,-99.99,meteohub,2013-02-16 23:02:00,
2013-02-16 18:07:00,33.8,31.1,29.51,North,-999,-999.0,-999.0,90,-99.99,,,-99.99,meteohub,2013-02-16 23:07:00,
2013-02-16 18:12:00,33.8,31.1,29.51,North,-999,-999.0,-999.0,90,-99.99,,,-99.99,meteohub,2013-02-16 23:12:00,
2013-02-16 18:17:00,33.8,31.1,29.51,North,-999,-999.0,-999.0,90,-99.99,,,-99.99,meteohub,2013-02-16 23:17:00,
2013-02-16 18:22:00,33.6,31.1,29.54,North,-999,-999.0,-999.0,90,-99.99,,,-99.99,meteohub,2013-02-16 23:22:00,
2013-02-16 18:27:00,33.8,31.1,29.54,North,-999,-999.0,-999.0,90,-99.99,,,-99.99,meteohub,2013-02-16 23:27:00,
2013-02-16 18:32:00,33.6,31.1,29.54,North,-999,-999.0,-999.0,90,-99.99,,,-99.99,meteohub,2013-02-16 23:32:00,
2013-02-16 18:37:00,33.6,31.1,29.54,North,-999,-999.0,-999.0,90,-99.99,,,-99.99,meteohub,2013-02-16 23:37:00,
2013-02-16 18:42:00,33.8,30.9,29.54,North,-999,-999.0,-999.0,89,-99.99,,,-99.99,meteohub,2013-02-16 23:42:00,
2013-02-16 18:47:00,33.8,30.9,29.54,North,-999,-999.0,-999.0,89,-99.99,,,-99.99,meteohub,2013-02-16 23:47:00,
2013-02-16 18:52:00,33.8,30.9,29.54,North,-999,-999.0,-999.0,89,-99.99,,,-99.99,meteohub,2013-02-16 23:52:00,
2013-02-16 18:57:00,33.8,30.9,29.54,North,-999,-999.0,-999.0,89,-99.99,,,-99.99,meteohub,2013-02-16 23:57:00,
2013-02-16 19:02:00,33.6,31.1,29.54,North,-999,-999.0,-999.0,90,-99.99,,,-99.99,meteohub,2013-02-17 00:02:00,
2013-02-16 19:07:00,33.8,31.1,29.54,North,-999,-999.0,-999.0,90,-99.99,,,-99.99,meteohub,2013-02-17 00:07:00,
2013-02-16 19:12:00,33.8,31.1,29.54,North,-999,-999.0,-999.0,90,-99.99,,,-99.99,meteohub,2013-02-17 00:12:00,
2013-02-16 19:17:00,33.8,31.1,29.54,North,-999,-999.0,-999.0,90,-99.99,,,-99.99,meteohub,2013-02-17 00:17:00,
2013-02-16 19:22:00,33.8,31.1,29.54,North,-999,-999.0,-999.0,90,-99.99,,,-99.99,meteohub,2013-02-17 00:22:00,
2013-02-16 19:27:00,33.8,31.1,29.54,North,-999,-999.0,-999.0,90,-99.99,,,-99.99,meteohub,2013-02-17 00:27:00,
2013-02-16 19:32:00,33.8,31.1,29.54,North,-999,-999.0,-999.0,90,-99.99,,,-99.99,meteohub,2013-02-17 00:32:00,
2013-02-16 19:37:00,33.8,31.1,29.54,North,-999,-999.0,-999.0,90,-99.99,,,-99.99,meteohub,2013-02-17 00:37:00,
2013-02-16 19:42:00,33.8,31.1,29.54,North,-999,-999.0,-999.0,90,-99.99,,,-99.99,meteohub,2013-02-17 00:42:00,
2013-02-16 19:47:00,33.8,31.1,29.54,North,-999,-999.0,-999.0,90,-99.99,,,-99.99,meteohub,2013-02-17 00:47:00,
2013-02-16 19:52:00,33.8,31.1,29.54,North,-999,-999.0,-999.0,90,-99.99,,,-99.99,meteohub,2013-02-17 00:52:00,
2013-02-16 19:57:00,33.8,31.1,29.54,North,-999,-999.0,-999.0,90,-99.99,,,-99.99,meteohub,2013-02-17 00:57:00,
2013-02-16 20:02:00,33.8,31.1,29.54,North,-999,-999.0,-999.0,90,-99.99,,,-99.99,meteohub,2013-02-17 01:02:00,
2013-02-16 20:07:00,33.8,31.1,29.54,North,-999,-999.0,-999.0,90,-99.99,,,-99.99,meteohub,2013-02-17 01:07:00,
2013-02-16 20:12:00,33.8,30.9,29.54,North,-999,-999.0,-999.0,89,-99.99,,,-99.99,meteohub,2013-02-17 01:12:00,
2013-02-16 20:17:00,33.6,31.1,29.54,North,-999,-999.0,-999.0,90,-99.99,,,-99.99,meteohub,2013-02-17 01:17:00,
2013-02-16 20:22:00,33.6,31.1,29.51,North,-999,-999.0,-999.0,90,-99.99,,,-99.99,meteohub,2013-02-17 01:22:00,
2013-02-16 20:27:00,33.6,31.1,29.51,North,-999,-999.0,-999.0,90,-99.99,,,-99.99,meteohub,2013-02-17 01:27:00,
2013-02-16 20:32:00,33.6,31.1,29.51,North,-999,-999.0,-999.0,90,-99.99,,,-99.99,meteohub,2013-02-17 01:32:00,
2013-02-16 20:37:00,33.6,31.1,29.54,North,-999,-999.0,-999.0,90,-99.99,,,-99.99,meteohub,2013-02-17 01:37:00,
2013-02-16 20:42:00,33.6,31.1,29.54,North,-999,-999.0,-999.0,90,-99.99,,,-99.99,meteohub,2013-02-17 01:42:00,
2013-02-16 20:47:00,33.6,30.7,29.54,North,-999,-999.0,-999.0,89,-99.99,,,-99.99,meteohub,2013-02-17 01:47:00,
2013-02-16 20:52:00,33.6,30.7,29.54,North,-999,-999.0,-999.0,89,-99.99,,,-99.99,meteohub,2013-02-17 01:52:00,
2013-02-16 20:57:00,33.6,30.7,29.54,North,-999,-999.0,-999.0,89,-99.99,,,-99.99,meteohub,2013-02-17 01:57:00,
2013-02-16 21:02:00,33.6,30.7,29.54,North,-999,-999.0,-999.0,89,-99.99,,,-99.99,meteohub,2013-02-17 02:02:00,
2013-02-16 21:07:00,33.6,30.7,29.54,North,-999,-999.0,-999.0,89,-99.99,,,-99.99,meteohub,2013-02-17 02:07:00,
2013-02-16 21:12:00,33.6,30.7,29.54,North,-999,-999.0,-999.0,89,-99.99,,,-99.99,meteohub,2013-02-17 02:12:00,
2013-02-16 21:17:00,33.6,30.7,29.54,North,-999,-999.0,-999.0,89,-99.99,,,-99.99,meteohub,2013-02-17 02:17:00,
2013-02-16 21:22:00,33.6,30.7,29.54,North,-999,-999.0,-999.0,89,-99.99,,,-99.99,meteohub,2013-02-17 02:22:00,
2013-02-16 21:27:00,33.6,30.7,29.54,North,-999,-999.0,-999.0,89,-99.99,,,-99.99,meteohub,2013-02-17 02:27:00,
2013-02-16 21:32:00,33.4,30.6,29.54,North,-999,-999.0,-999.0,89,-99.99,,,-99.99,meteohub,2013-02-17 02:32:00,
2013-02-16 21:37:00,33.6,31.1,29.54,North,-999,-999.0,-999.0,90,-99.99,,,-99.99,meteohub,2013-02-17 02:37:00,
2013-02-16 21:42:00,33.4,30.9,29.54,North,-999,-999.0,-999.0,90,-99.99,,,-99.99,meteohub,2013-02-17 02:42:00,
2013-02-16 21:47:00,33.3,30.7,29.54,North,-999,-999.0,-999.0,90,-99.99,,,-99.99,meteohub,2013-02-17 02:47:00,
2013-02-16 21:52:00,33.3,30.7,29.57,North,-999,-999.0,-999.0,90,-99.99,,,-99.99,meteohub,2013-02-17 02:52:00,
2013-02-16 21:57:00,33.3,30.7,29.57,North,-999,-999.0,-999.0,90,-99.99,,,-99.99,meteohub,2013-02-17 02:57:00,
2013-02-16 22:03:00,33.3,30.7,29.57,North,-999,-999.0,-999.0,90,-99.99,,,-99.99,meteohub,2013-02-17 03:03:00,
2013-02-16 22:08:00,33.1,30.2,29.57,North,-999,-999.0,-999.0,89,-99.99,,,-99.99,meteohub,2013-02-17 03:08:00,
2013-02-16 22:13:00,33.1,30.2,29.57,North,-999,-999.0,-999.0,89,-99.99,,,-99.99,meteohub,2013-02-17 03:13:00,
2013-02-16 22:18:00,33.1,30.2,29.57,North,-999,-999.0,-999.0,89,-99.99,,,-99.99,meteohub,2013-02-17 03:18:00,
2013-02-16 22:23:00,32.9,30.0,29.57,North,-999,-999.0,-999.0,89,-99.99,,,-99.99,meteohub,2013-02-17 03:23:00,
2013-02-16 22:28:00,32.9,30.0,29.57,North,-999,-999.0,-999.0,89,-99.99,,,-99.99,meteohub,2013-02-17 03:28:00,
2013-02-16 22:33:00,32.7,29.8,29.57,North,-999,-999.0,-999.0,89,-99.99,,,-99.99,meteohub,2013-02-17 03:33:00,
2013-02-16 22:38:00,32.7,29.7,29.57,North,-999,-999.0,-999.0,88,-99.99,,,-99.99,meteohub,2013-02-17 03:38:00,
2013-02-16 22:44:00,32.7,29.7,29.57,North,-999,-999.0,-999.0,88,-99.99,,,-99.99,meteohub,2013-02-17 03:44:00,
2013-02-16 22:49:00,32.5,29.1,29.57,North,-999,-999.0,-999.0,87,-99.99,,,-99.99,meteohub,2013-02-17 03:49:00,
2013-02-16 22:54:00,32.5,28.8,29.57,North,-999,-999.0,-999.0,86,-99.99,,,-99.99,meteohub,2013-02-17 03:54:00,
2013-02-16 22:59:00,32.4,28.4,29.57,North,-999,-999.0,-999.0,85,-99.99,,,-99.99,meteohub,2013-02-17 03:59:00,
2013-02-16 23:04:00,32.2,27.9,29.57,North,-999,-999.0,-999.0,84,-99.99,,,-99.99,meteohub,2013-02-17 04:04:00,
2013-02-16 23:09:00,32.2,27.7,29.57,North,-999,-999.0,-999.0,83,-99.99,,,-99.99,meteohub,2013-02-17 04:09:00,
2013-02-16 23:15:00,32.2,27.3,29.57,North,-999,-999.0,-999.0,82,-99.99,,,-99.99,meteohub,2013-02-17 04:15:00,
2013-02-16 23:20:00,32.2,26.8,29.57,North,-999,-999.0,-999.0,80,-99.99,,,-99.99,meteohub,2013-02-17 04:20:00,
2013-02-16 23:25:00,32.2,26.4,29.57,North,-999,-999.0,-999.0,79,-99.99,,,-99.99,meteohub,2013-02-17 04:25:00,
2013-02-16 23:30:00,32.0,25.9,29.57,North,-999,-999.0,-999.0,78,-99.99,,,-99.99,meteohub,2013-02-17 04:30:00,
2013-02-16 23:35:00,32.0,25.7,29.57,North,-999,-999.0,-999.0,77,-99.99,,,-99.99,meteohub,2013-02-17 04:35:00,
2013-02-16 23:40:00,32.0,25.3,29.57,North,-999,-999.0,-999.0,76,-99.99,,,-99.99,meteohub,2013-02-17 04:40:00,
2013-02-16 23:45:00,32.0,25.0,29.57,North,-999,-999.0,-999.0,75,-99.99,,,-99.99,meteohub,2013-02-17 04:45:00,
2013-02-16 23:50:00,32.0,25.3,29.57,North,-999,-999.0,-999.0,76,-99.99,,,-99.99,meteohub,2013-02-17 04:50:00,
2013-02-16 23:55:00,32.0,25.3,29.57,North,-999,-999.0,-999.0,76,-99.99,,,-99.99,meteohub,2013-02-17 04:55:00,